Home   Weather   Ceuta   Past weeks

Flag for Spain Past Weather in Ceuta, Ceuta, Spain — Yesterday and Last 2 Weeks

Now
61 °F

Passing clouds.


Feels Like: 61 °F
Forecast: 59 / 67 °F
Wind: 17 mph from West

Location: Gibraltar Airport

Current Time: Apr 27, 2017 at 1:27:58 am

Latest Report: Apr 27, 2017 at 12:50 am


Visibility: N/A

Pressure: 29.83 "Hg

Humidity: 83%

Dew Point: 55 °F

Location of CeutaLocation

Past Weather in Ceuta — Graph

°F

Ceuta Temperature Yesterday

Maximum temperature yesterday: 68 °F (at 12:50 pm)
Minimum temperature yesterday: 61 °F (at 6:50 am)
Average temperature yesterday: 64 °F

High & Low Weather Summary for the Past Weeks

 TemperatureHumidityPressure
High75 °F (Apr 13, 4:50 pm)100% (Apr 16, 8:50 am)30.18 "Hg (Apr 16, 8:50 am)
Low57 °F (Apr 12, 6:50 am)38% (Apr 12, 5:50 pm)29.80 "Hg (Apr 26, 6:50 am)
Average64 °F77%30.03 "Hg
* Reported Apr 11 10:50 pm — Apr 26 10:50 pm, Ceuta, Weather by CustomWeather, © 2017

Note: Actual official high and low records may vary slightly from our data, if they occured in-between our weather recording intervals... More about our weather records

Advertising

Ceuta Weather History for the Previous 24 Hours

Scroll right to see more
 ConditionsComfort  
Time TempWeatherWind HumidityBarometerVisibility
10:50 pm
Wed, Apr 26
61 °FClear.17 mph83%29.86 "Hg10 mi
9:50 pm63 °FClear.15 mph77%29.83 "Hg10 mi
8:50 pm64 °FScattered clouds.17 mph68%29.80 "HgN/A
7:50 pm66 °FScattered clouds.17 mph60%29.80 "HgN/A
6:50 pm66 °FPartly sunny.16 mph64%29.80 "HgN/A
5:50 pm68 °FPartly sunny.16 mph60%29.80 "HgN/A
4:50 pm68 °FPartly sunny.15 mph56%29.83 "HgN/A
3:50 pm68 °FPartly sunny.16 mph60%29.83 "HgN/A
2:50 pm68 °FPartly sunny.15 mph60%29.83 "HgN/A
1:50 pm66 °FPartly sunny.16 mph68%29.83 "HgN/A
12:50 pm68 °FScattered clouds.13 mph60%29.86 "HgN/A
11:50 am66 °FBroken clouds.14 mph64%29.86 "HgN/A
10:50 am66 °FScattered clouds.10 mph68%29.86 "HgN/A
9:50 am63 °FScattered clouds.13 mph83%29.86 "HgN/A
8:50 am63 °FScattered clouds.10 mph88%29.83 "HgN/A
7:50 am61 °FScattered clouds.7 mph88%29.83 "HgN/A
6:50 am61 °FOvercast.13 mph88%29.80 "HgN/A
5:50 am63 °FPassing clouds.10 mph77%29.83 "HgN/A
4:50 am63 °FPassing clouds.10 mph77%29.83 "HgN/A
3:50 am63 °FPassing clouds.13 mph77%29.83 "HgN/A
2:50 am63 °FPassing clouds.13 mph77%29.86 "HgN/A
1:50 am63 °FClear.15 mph77%29.86 "HgN/A
Weather by CustomWeather, © 2017

See weather overviewHow to use our weather pages